Year,Month,Day,Hour,Minute,Value (Times are PST for temperature in C)
2010,09,24,00,00,11.60
2010,09,24,00,01,11.60
2010,09,24,00,02,11.60
2010,09,24,00,03,11.60
2010,09,24,00,04,11.60
2010,09,24,00,05,11.60
2010,09,24,00,06,11.60
2010,09,24,00,07,11.60
2010,09,24,00,08,11.60
2010,09,24,00,09,11.60
2010,09,24,00,10,11.60
2010,09,24,00,11,11.60
2010,09,24,00,12,11.60
2010,09,24,00,13,11.60
2010,09,24,00,14,11.60
2010,09,24,00,15,11.50
2010,09,24,00,16,11.40
2010,09,24,00,17,11.40
2010,09,24,00,18,11.40
2010,09,24,00,19,11.40
2010,09,24,00,20,11.40
2010,09,24,00,21,11.40
2010,09,24,00,22,11.40
2010,09,24,00,23,11.40
2010,09,24,00,24,11.60
2010,09,24,00,25,11.60
2010,09,24,00,26,11.60
2010,09,24,00,27,11.60
2010,09,24,00,28,11.60
2010,09,24,00,29,11.60
2010,09,24,00,30,11.60
2010,09,24,00,31,11.60
2010,09,24,00,32,11.60
2010,09,24,00,33,11.40
2010,09,24,00,34,11.40
2010,09,24,00,35,11.40
2010,09,24,00,36,11.30
2010,09,24,00,37,11.30
2010,09,24,00,38,11.30
2010,09,24,00,39,11.30
2010,09,24,00,40,11.20
2010,09,24,00,41,11.20
2010,09,24,00,42,11.20
2010,09,24,00,43,11.20
2010,09,24,00,44,11.20
2010,09,24,00,45,11.20
2010,09,24,00,46,11.10
2010,09,24,00,47,11.10
2010,09,24,00,48,11.10
2010,09,24,00,49,11.10
2010,09,24,00,50,11.10
2010,09,24,00,51,11.10
2010,09,24,00,52,11.10
2010,09,24,00,53,11.10
2010,09,24,00,54,11.10
2010,09,24,00,55,11.10
2010,09,24,00,56,11.10
2010,09,24,00,57,11.10
2010,09,24,00,58,11.10
2010,09,24,00,59,11.10
2010,09,24,01,00,11.10
2010,09,24,01,01,11.10
2010,09,24,01,02,11.10
2010,09,24,01,03,11.10
2010,09,24,01,04,11.10
2010,09,24,01,05,11.10
2010,09,24,01,06,11.10
2010,09,24,01,07,11.10
2010,09,24,01,08,11.10
2010,09,24,01,09,11.10
2010,09,24,01,10,11.10
2010,09,24,01,11,11.10
2010,09,24,01,12,11.10
2010,09,24,01,13,11.10
2010,09,24,01,14,11.10
2010,09,24,01,15,11.10
2010,09,24,01,16,11.10
2010,09,24,01,17,11.10
2010,09,24,01,18,11.10
2010,09,24,01,19,11.10
2010,09,24,01,20,11.10
2010,09,24,01,21,11.10
2010,09,24,01,22,11.10
2010,09,24,01,23,11.10
2010,09,24,01,24,11.10
2010,09,24,01,25,11.10
2010,09,24,01,26,11.10
2010,09,24,01,27,11.10
2010,09,24,01,28,11.10
2010,09,24,01,29,11.10
2010,09,24,01,30,11.10
2010,09,24,01,31,11.10
2010,09,24,01,32,11.10
2010,09,24,01,33,11.10
2010,09,24,01,34,11.10
2010,09,24,01,35,11.10
2010,09,24,01,36,11.10
2010,09,24,01,37,11.10
2010,09,24,01,38,11.10
2010,09,24,01,39,11.10
2010,09,24,01,40,11.10
2010,09,24,01,41,11.10
2010,09,24,01,42,11.10
2010,09,24,01,43,11.10
2010,09,24,01,44,11.10
2010,09,24,01,45,11.10
2010,09,24,01,46,11.10
2010,09,24,01,47,11.10
2010,09,24,01,48,11.10
2010,09,24,01,49,11.10
2010,09,24,01,50,11.10
2010,09,24,01,51,10.90
2010,09,24,01,52,10.90
2010,09,24,01,53,10.90
2010,09,24,01,54,10.90
2010,09,24,01,55,10.90
2010,09,24,01,56,10.90
2010,09,24,01,57,10.90
2010,09,24,01,58,10.90
2010,09,24,01,59,10.90
2010,09,24,02,00,10.90
2010,09,24,02,01,10.90
2010,09,24,02,02,10.90
2010,09,24,02,03,10.90
2010,09,24,02,04,10.90
2010,09,24,02,05,10.90
2010,09,24,02,06,10.90
2010,09,24,02,07,10.90
2010,09,24,02,08,10.90
2010,09,24,02,09,10.90
2010,09,24,02,10,10.90
2010,09,24,02,11,10.90
2010,09,24,02,12,11.00
2010,09,24,02,13,11.10
2010,09,24,02,14,11.10
2010,09,24,02,15,11.10
2010,09,24,02,16,11.10
2010,09,24,02,17,11.10
2010,09,24,02,18,11.10
2010,09,24,02,19,11.10
2010,09,24,02,20,11.10
2010,09,24,02,21,11.10
2010,09,24,02,22,11.10
2010,09,24,02,23,11.10
2010,09,24,02,24,11.10
2010,09,24,02,25,11.10
2010,09,24,02,26,11.10
2010,09,24,02,27,11.10
2010,09,24,02,28,11.10
2010,09,24,02,29,11.00
2010,09,24,02,30,10.90
2010,09,24,02,31,10.90
2010,09,24,02,32,10.90
2010,09,24,02,33,10.90
2010,09,24,02,34,10.90
2010,09,24,02,35,10.90
2010,09,24,02,36,10.90
2010,09,24,02,37,10.90
2010,09,24,02,38,10.90
2010,09,24,02,39,10.90
2010,09,24,02,40,10.90
2010,09,24,02,41,10.90
2010,09,24,02,42,11.10
2010,09,24,02,43,11.10
2010,09,24,02,44,11.10
2010,09,24,02,45,11.10
2010,09,24,02,46,11.10
2010,09,24,02,47,11.10
2010,09,24,02,48,11.10
2010,09,24,02,49,11.10
2010,09,24,02,50,11.20
2010,09,24,02,51,11.20
2010,09,24,02,52,11.20
2010,09,24,02,53,11.20
2010,09,24,02,54,11.20
2010,09,24,02,55,11.20
2010,09,24,02,56,11.20
2010,09,24,02,57,11.20
2010,09,24,02,58,11.20
2010,09,24,02,59,11.20
2010,09,24,03,00,11.20
2010,09,24,03,01,11.20
2010,09,24,03,02,11.30
2010,09,24,03,03,11.30
2010,09,24,03,04,11.40
2010,09,24,03,05,11.40
2010,09,24,03,06,11.40
2010,09,24,03,07,11.40
2010,09,24,03,08,11.40
2010,09,24,03,09,11.40
2010,09,24,03,10,11.40
2010,09,24,03,11,11.40
2010,09,24,03,12,11.40
2010,09,24,03,13,11.40
2010,09,24,03,14,11.40
2010,09,24,03,15,11.40
2010,09,24,03,16,11.40
2010,09,24,03,17,11.40
2010,09,24,03,18,11.40
2010,09,24,03,19,11.40
2010,09,24,03,20,11.40
2010,09,24,03,21,11.40
2010,09,24,03,22,11.40
2010,09,24,03,23,11.40
2010,09,24,03,24,11.40
2010,09,24,03,25,11.40
2010,09,24,03,26,11.40
2010,09,24,03,27,11.40
2010,09,24,03,28,11.40
2010,09,24,03,29,11.40
2010,09,24,03,30,11.40
2010,09,24,03,31,11.40
2010,09,24,03,32,11.40
2010,09,24,03,33,11.40
2010,09,24,03,34,11.40
2010,09,24,03,35,11.40
2010,09,24,03,36,11.40
2010,09,24,03,37,11.40
2010,09,24,03,38,11.40
2010,09,24,03,39,11.40
2010,09,24,03,40,11.40
2010,09,24,03,41,11.40
2010,09,24,03,42,11.50
2010,09,24,03,43,11.60
2010,09,24,03,44,11.60
2010,09,24,03,45,11.60
2010,09,24,03,46,11.60
2010,09,24,03,47,11.60
2010,09,24,03,48,11.60
2010,09,24,03,49,11.60
2010,09,24,03,50,11.60
2010,09,24,03,51,11.60
2010,09,24,03,52,11.60
2010,09,24,03,53,11.60
2010,09,24,03,54,11.60
2010,09,24,03,55,11.60
2010,09,24,03,56,11.60
2010,09,24,03,57,11.70
2010,09,24,03,58,11.70
2010,09,24,03,59,11.70
2010,09,24,04,00,11.70
2010,09,24,04,01,11.70
2010,09,24,04,02,11.70
2010,09,24,04,03,11.70
2010,09,24,04,04,11.70
2010,09,24,04,05,11.70
2010,09,24,04,06,11.70
2010,09,24,04,07,11.70
2010,09,24,04,08,11.70
2010,09,24,04,09,11.70
2010,09,24,05,34,12.00
2010,09,24,05,35,12.00
2010,09,24,05,36,12.00
2010,09,24,05,37,12.00
2010,09,24,05,38,12.00
2010,09,24,05,39,12.00
2010,09,24,05,40,12.00
2010,09,24,05,41,12.00
2010,09,24,05,42,12.00
2010,09,24,05,43,12.00
2010,09,24,05,44,12.00
2010,09,24,05,45,12.00
2010,09,24,05,46,12.00
2010,09,24,05,47,12.00
2010,09,24,05,48,12.00
2010,09,24,05,49,12.00
2010,09,24,05,50,12.00
2010,09,24,05,51,12.00
2010,09,24,05,52,12.00
2010,09,24,05,53,12.00
2010,09,24,05,54,12.00
2010,09,24,05,55,12.00
2010,09,24,05,56,12.00
2010,09,24,05,57,12.00
2010,09,24,05,58,12.00
2010,09,24,05,59,12.00
2010,09,24,06,00,12.00
2010,09,24,06,01,11.90
2010,09,24,06,02,11.90
2010,09,24,06,03,11.90
2010,09,24,06,04,11.90
2010,09,24,06,05,11.90
2010,09,24,06,06,11.90
2010,09,24,06,07,11.90
2010,09,24,06,08,11.90
2010,09,24,06,09,11.90
2010,09,24,06,10,11.90
2010,09,24,06,11,11.90
2010,09,24,06,12,11.90
2010,09,24,06,13,11.90
2010,09,24,06,14,11.90
2010,09,24,06,15,11.90
2010,09,24,06,16,11.90
2010,09,24,06,17,11.90
2010,09,24,06,18,11.90
2010,09,24,06,19,11.90
2010,09,24,06,20,11.90
2010,09,24,06,21,11.90
2010,09,24,06,22,11.90
2010,09,24,06,23,11.90
2010,09,24,06,24,11.90
2010,09,24,06,25,12.00
2010,09,24,06,26,12.00
2010,09,24,06,27,12.00
2010,09,24,06,28,12.00
2010,09,24,06,29,12.00
2010,09,24,06,30,12.00
2010,09,24,06,31,12.00
2010,09,24,06,32,12.00
2010,09,24,06,33,12.00
2010,09,24,06,34,12.00
2010,09,24,06,35,12.00
2010,09,24,06,36,12.00
2010,09,24,06,37,12.00
2010,09,24,06,38,12.00
2010,09,24,06,39,12.00
2010,09,24,06,40,12.00
2010,09,24,06,41,12.00
2010,09,24,06,42,12.00
2010,09,24,06,43,12.00
2010,09,24,06,44,12.00
2010,09,24,06,45,12.00
2010,09,24,06,46,12.00
2010,09,24,06,47,12.00
2010,09,24,06,48,12.00
2010,09,24,06,49,12.10
2010,09,24,06,50,12.10
2010,09,24,06,51,12.10
2010,09,24,06,52,12.10
2010,09,24,06,53,12.10
2010,09,24,06,54,12.10
2010,09,24,06,55,12.10
2010,09,24,06,56,12.10
2010,09,24,06,57,12.10
2010,09,24,06,58,12.10
2010,09,24,06,59,12.10
2010,09,24,07,00,12.10
2010,09,24,07,01,12.10
2010,09,24,07,02,12.10
2010,09,24,07,03,12.10
2010,09,24,07,04,12.10
2010,09,24,07,05,12.10
2010,09,24,07,06,12.20
2010,09,24,07,07,12.20
2010,09,24,07,08,12.20
2010,09,24,07,09,12.20
2010,09,24,07,10,12.20
2010,09,24,07,11,12.20
2010,09,24,07,12,12.20
2010,09,24,07,13,12.20
2010,09,24,07,14,12.20
2010,09,24,07,15,12.20
2010,09,24,07,16,12.20
2010,09,24,07,17,12.20
2010,09,24,07,18,12.20
2010,09,24,07,19,12.20
2010,09,24,07,20,12.20
2010,09,24,07,21,12.20
2010,09,24,07,22,12.20
2010,09,24,07,23,12.20
2010,09,24,07,24,12.20
2010,09,24,07,25,12.20
2010,09,24,07,26,12.20
2010,09,24,07,27,12.20
2010,09,24,07,28,12.30
2010,09,24,07,29,12.30
2010,09,24,07,30,12.30
2010,09,24,07,31,12.30
2010,09,24,07,32,12.30
2010,09,24,07,33,12.30
2010,09,24,07,34,12.30
2010,09,24,07,35,12.30
2010,09,24,07,36,12.30
2010,09,24,07,37,12.30
2010,09,24,07,38,12.30
2010,09,24,07,39,12.30
2010,09,24,07,40,12.30
2010,09,24,07,41,12.30
2010,09,24,07,42,12.30
2010,09,24,07,43,12.30
2010,09,24,07,44,12.30
2010,09,24,07,45,12.30
2010,09,24,07,46,12.30
2010,09,24,07,47,12.30
2010,09,24,07,48,12.30
2010,09,24,07,49,12.30
2010,09,24,07,50,12.30
2010,09,24,07,51,12.30
2010,09,24,07,52,12.30
2010,09,24,07,53,12.30
2010,09,24,07,54,12.30
2010,09,24,07,55,12.30
2010,09,24,07,56,12.30
2010,09,24,07,57,12.30
2010,09,24,07,58,12.30
2010,09,24,07,59,12.30
2010,09,24,08,00,12.30
2010,09,24,08,01,12.30
2010,09,24,08,02,12.30
2010,09,24,08,03,12.30
2010,09,24,08,04,12.30
2010,09,24,08,05,12.30
2010,09,24,08,06,12.30
2010,09,24,08,07,12.30
2010,09,24,08,08,12.40
2010,09,24,08,09,12.40
2010,09,24,08,10,12.40
2010,09,24,08,11,12.40
2010,09,24,08,12,12.40
2010,09,24,08,13,12.40
2010,09,24,08,14,12.40
2010,09,24,08,15,12.40
2010,09,24,08,16,12.40
2010,09,24,08,17,12.40
2010,09,24,08,18,12.40
2010,09,24,08,19,12.40
2010,09,24,08,20,12.40
2010,09,24,08,21,12.40
2010,09,24,08,22,12.40
2010,09,24,08,23,12.40
2010,09,24,08,24,12.30
2010,09,24,08,25,12.30
2010,09,24,08,26,12.30
2010,09,24,08,27,12.30
2010,09,24,08,28,12.30
2010,09,24,08,29,12.30
2010,09,24,08,30,12.30
2010,09,24,08,31,12.20
2010,09,24,08,32,12.20
2010,09,24,08,33,12.10
2010,09,24,08,34,12.10
2010,09,24,08,35,12.10
2010,09,24,08,36,12.00
2010,09,24,08,37,12.00
2010,09,24,08,38,12.00
2010,09,24,08,39,12.00
2010,09,24,08,40,11.90
2010,09,24,08,41,11.90
2010,09,24,08,42,11.80
2010,09,24,08,43,11.80
2010,09,24,08,44,11.80
2010,09,24,08,45,11.80
2010,09,24,08,46,11.70
2010,09,24,08,47,11.70
2010,09,24,08,48,11.70
2010,09,24,08,49,11.60
2010,09,24,08,50,11.60
2010,09,24,08,51,11.60
2010,09,24,08,52,11.60
2010,09,24,08,53,11.60
2010,09,24,08,54,11.60
2010,09,24,08,55,11.60
2010,09,24,08,56,11.60
2010,09,24,08,57,11.60
2010,09,24,08,58,11.60
2010,09,24,08,59,11.60
2010,09,24,09,00,11.60
2010,09,24,09,01,11.60
2010,09,24,09,02,11.60
2010,09,24,09,03,11.60
2010,09,24,09,04,11.50
2010,09,24,09,05,11.40
2010,09,24,09,06,11.40
2010,09,24,09,07,11.40
2010,09,24,09,08,11.40
2010,09,24,09,09,11.30
2010,09,24,09,10,11.30
2010,09,24,09,11,11.30
2010,09,24,09,12,11.30
2010,09,24,09,13,11.30
2010,09,24,09,14,11.30
2010,09,24,09,15,11.20
2010,09,24,09,16,11.20
2010,09,24,09,17,11.30
2010,09,24,09,18,11.30
2010,09,24,09,19,11.30
2010,09,24,09,20,11.30
2010,09,24,09,21,11.30
2010,09,24,09,22,11.30
2010,09,24,09,23,11.30
2010,09,24,09,24,11.30
2010,09,24,09,25,11.30
2010,09,24,09,26,11.30
2010,09,24,09,27,11.30
2010,09,24,09,28,11.30
2010,09,24,09,29,11.30
2010,09,24,09,30,11.30
2010,09,24,09,31,11.30
2010,09,24,09,32,11.20
2010,09,24,09,33,11.20
2010,09,24,09,34,11.10
2010,09,24,09,35,11.10
2010,09,24,09,36,11.10
2010,09,24,09,37,11.00
2010,09,24,09,38,10.90
2010,09,24,09,39,10.90
2010,09,24,09,40,10.90
2010,09,24,09,41,10.90
2010,09,24,09,42,10.90
2010,09,24,09,43,10.90
2010,09,24,09,44,10.90
2010,09,24,09,45,10.80
2010,09,24,09,46,10.80
2010,09,24,09,47,10.80
2010,09,24,09,48,10.80
2010,09,24,09,49,10.80
2010,09,24,09,50,10.80
2010,09,24,09,51,10.80
2010,09,24,09,52,10.80
2010,09,24,09,53,10.80
2010,09,24,09,54,10.80
2010,09,24,09,55,10.80
2010,09,24,09,56,10.80
2010,09,24,09,57,10.80
2010,09,24,09,58,10.90
2010,09,24,09,59,10.90
2010,09,24,10,00,10.90
2010,09,24,10,01,10.90
2010,09,24,10,02,10.90
2010,09,24,10,03,10.90
2010,09,24,10,04,11.00
2010,09,24,10,05,11.10
2010,09,24,10,06,11.10
2010,09,24,10,07,11.10
2010,09,24,10,08,11.10
2010,09,24,10,09,11.10
2010,09,24,10,10,11.10
2010,09,24,10,11,11.10
2010,09,24,10,12,11.10
2010,09,24,10,13,11.10
2010,09,24,10,14,11.20
2010,09,24,10,15,11.20
2010,09,24,10,16,11.20
2010,09,24,10,17,11.20
2010,09,24,10,18,11.20
2010,09,24,10,19,11.20
2010,09,24,10,20,11.30
2010,09,24,10,21,11.30
2010,09,24,10,22,11.30
2010,09,24,10,23,11.30
2010,09,24,10,24,11.30
2010,09,24,10,25,11.30
2010,09,24,10,26,11.30
2010,09,24,10,27,11.40
2010,09,24,10,28,11.40
2010,09,24,10,29,11.40
2010,09,24,10,30,11.40
2010,09,24,10,31,11.40
2010,09,24,10,32,11.40
2010,09,24,10,33,11.60
2010,09,24,10,34,11.60
2010,09,24,10,35,11.60
2010,09,24,10,36,11.60
2010,09,24,10,37,11.60
2010,09,24,10,38,11.60
2010,09,24,10,39,11.60
2010,09,24,10,40,11.60
2010,09,24,10,41,11.60
2010,09,24,10,42,11.60
2010,09,24,10,43,11.60
2010,09,24,10,44,11.60
2010,09,24,10,45,11.60
2010,09,24,10,46,11.70
2010,09,24,10,47,11.70
2010,09,24,10,48,11.80
2010,09,24,10,49,11.80
2010,09,24,10,50,11.80
2010,09,24,10,51,11.80
2010,09,24,10,52,11.80
2010,09,24,10,53,11.80
2010,09,24,10,54,11.80
2010,09,24,10,55,11.80
2010,09,24,10,56,11.80
2010,09,24,10,57,11.80
2010,09,24,10,58,11.80
2010,09,24,10,59,11.80
2010,09,24,11,00,11.80
2010,09,24,11,01,11.80
2010,09,24,11,02,11.80
2010,09,24,11,03,11.80
2010,09,24,11,04,11.90
2010,09,24,11,05,11.90
2010,09,24,11,06,11.90
2010,09,24,11,07,11.90
2010,09,24,11,08,12.00
2010,09,24,11,09,12.00
2010,09,24,11,10,12.00
2010,09,24,11,11,12.00
2010,09,24,11,12,12.00
2010,09,24,11,13,12.00
2010,09,24,11,14,12.00
2010,09,24,11,15,12.00
2010,09,24,11,16,12.00
2010,09,24,11,17,12.10
2010,09,24,11,18,12.10
2010,09,24,11,19,12.10
2010,09,24,11,20,12.20
2010,09,24,11,21,12.20
2010,09,24,11,22,12.20
2010,09,24,11,23,12.30
2010,09,24,11,24,12.30
2010,09,24,11,25,12.30
2010,09,24,11,26,12.30
2010,09,24,11,27,12.30
2010,09,24,11,28,12.30
2010,09,24,11,29,12.30
2010,09,24,11,30,12.30
2010,09,24,11,31,12.30
2010,09,24,11,32,12.30
2010,09,24,11,33,12.30
2010,09,24,11,34,12.30
2010,09,24,11,35,12.30
2010,09,24,11,36,12.30
2010,09,24,11,37,12.30
2010,09,24,11,38,12.30
2010,09,24,11,39,12.30
2010,09,24,11,40,12.30
2010,09,24,11,41,12.30
2010,09,24,11,42,12.30
2010,09,24,11,43,12.30
2010,09,24,11,44,12.30
2010,09,24,11,45,12.30
2010,09,24,11,46,12.30
2010,09,24,11,47,12.30
2010,09,24,11,48,12.30
2010,09,24,11,49,12.30
2010,09,24,11,50,12.30
2010,09,24,11,51,12.30
2010,09,24,11,52,12.30
2010,09,24,11,53,12.30
2010,09,24,11,54,12.30
2010,09,24,11,55,12.30
2010,09,24,11,56,12.30
2010,09,24,11,57,12.30
2010,09,24,11,58,12.30
2010,09,24,11,59,12.30
2010,09,24,12,00,12.20
2010,09,24,12,01,12.20
2010,09,24,12,02,12.20
2010,09,24,12,03,12.20
2010,09,24,12,04,12.20
2010,09,24,12,05,12.20
2010,09,24,12,06,12.20
2010,09,24,12,07,12.20
2010,09,24,12,08,12.20
2010,09,24,12,09,12.20
2010,09,24,12,10,12.20
2010,09,24,12,11,12.20
2010,09,24,12,12,12.20
2010,09,24,12,13,12.30
2010,09,24,12,14,12.30
2010,09,24,12,15,12.30
2010,09,24,12,16,12.30
2010,09,24,12,17,12.30
2010,09,24,12,18,12.30
2010,09,24,12,19,12.30
2010,09,24,12,20,12.30
2010,09,24,12,21,12.30
2010,09,24,12,22,12.30
2010,09,24,12,23,12.30
2010,09,24,12,24,12.30
2010,09,24,12,25,12.30
2010,09,24,12,26,12.30
2010,09,24,12,27,12.30
2010,09,24,12,28,12.30
2010,09,24,12,29,12.40
2010,09,24,12,30,12.40
2010,09,24,12,31,12.50
2010,09,24,12,32,12.50
2010,09,24,12,33,12.50
2010,09,24,12,34,12.60
2010,09,24,12,35,12.60
2010,09,24,12,36,12.60
2010,09,24,12,37,12.70
2010,09,24,12,38,12.70
2010,09,24,12,39,12.70
2010,09,24,12,40,12.70
2010,09,24,12,41,12.70
2010,09,24,12,42,12.70
2010,09,24,12,43,12.80
2010,09,24,12,44,12.80
2010,09,24,12,45,12.80
2010,09,24,12,46,12.80
2010,09,24,12,47,12.80
2010,09,24,12,48,12.80
2010,09,24,12,49,12.80
2010,09,24,12,50,12.80
2010,09,24,12,51,12.80
2010,09,24,12,52,12.80
2010,09,24,12,53,12.80
2010,09,24,12,54,12.80
2010,09,24,12,55,12.80
2010,09,24,12,56,12.80
2010,09,24,12,57,12.80
2010,09,24,12,58,12.80
2010,09,24,12,59,12.80
2010,09,24,13,00,12.80
2010,09,24,13,01,12.80
2010,09,24,13,02,12.80
2010,09,24,13,03,12.80
2010,09,24,13,04,12.80
2010,09,24,13,05,12.80
2010,09,24,13,06,12.80
2010,09,24,13,07,12.80
2010,09,24,13,08,12.80
2010,09,24,13,09,12.80
2010,09,24,13,10,12.80
2010,09,24,13,11,12.80
2010,09,24,13,12,12.80
2010,09,24,13,13,12.80
2010,09,24,13,14,12.80
2010,09,24,13,15,12.80
2010,09,24,13,16,12.80
2010,09,24,13,17,12.80
2010,09,24,13,18,12.80
2010,09,24,13,19,12.80
2010,09,24,13,20,12.80
2010,09,24,13,21,12.80
2010,09,24,13,22,12.80
2010,09,24,13,23,12.80
2010,09,24,13,24,12.80
2010,09,24,13,25,12.80
2010,09,24,13,26,12.80
2010,09,24,13,27,12.70
2010,09,24,13,28,12.70
2010,09,24,13,29,12.70
2010,09,24,13,30,12.70
2010,09,24,13,31,12.70
2010,09,24,13,32,12.70
2010,09,24,13,33,12.70
2010,09,24,13,34,12.70
2010,09,24,13,35,12.70
2010,09,24,13,36,12.70
2010,09,24,13,37,12.60
2010,09,24,13,38,12.60
2010,09,24,13,39,12.60
2010,09,24,13,40,12.60
2010,09,24,13,41,12.60
2010,09,24,13,42,12.60
2010,09,24,13,43,12.60
2010,09,24,13,44,12.60
2010,09,24,13,45,12.60
2010,09,24,13,46,12.60
2010,09,24,13,47,12.60
2010,09,24,13,48,12.50
2010,09,24,13,49,12.50
2010,09,24,13,50,12.50
2010,09,24,13,51,12.40
2010,09,24,13,52,12.40
2010,09,24,13,53,12.30
2010,09,24,13,54,12.30
2010,09,24,13,55,12.30
2010,09,24,13,56,12.30
2010,09,24,13,57,12.30
2010,09,24,13,58,12.30
2010,09,24,13,59,12.30
2010,09,24,14,00,12.30
2010,09,24,14,01,12.30
2010,09,24,14,02,12.30
2010,09,24,14,03,12.30
2010,09,24,14,04,12.30
2010,09,24,14,05,12.30
2010,09,24,14,06,12.30
2010,09,24,14,07,12.30
2010,09,24,14,08,12.30
2010,09,24,14,09,12.30
2010,09,24,14,10,12.30
2010,09,24,14,11,12.30
2010,09,24,14,12,12.30
2010,09,24,14,13,12.30
2010,09,24,14,14,12.30
2010,09,24,14,15,12.30
2010,09,24,14,16,12.30
2010,09,24,14,17,12.30
2010,09,24,14,18,12.30
2010,09,24,14,19,12.30
2010,09,24,14,20,12.30
2010,09,24,14,21,12.30
2010,09,24,14,22,12.30
2010,09,24,14,23,12.40
2010,09,24,14,24,12.40
2010,09,24,14,25,12.30
2010,09,24,14,26,12.40
2010,09,24,14,27,12.40
2010,09,24,14,28,12.40
2010,09,24,14,29,12.50
2010,09,24,14,30,12.50
2010,09,24,14,31,12.50
2010,09,24,14,32,12.50
2010,09,24,14,33,12.60
2010,09,24,14,34,12.60
2010,09,24,14,35,12.60
2010,09,24,14,36,12.70
2010,09,24,14,37,12.70
2010,09,24,14,38,12.80
2010,09,24,14,39,12.80
2010,09,24,14,40,12.80
2010,09,24,14,41,12.80
2010,09,24,14,42,12.80
2010,09,24,14,43,12.80
2010,09,24,14,44,12.80
2010,09,24,14,45,12.90
2010,09,24,14,46,12.90
2010,09,24,14,47,12.90
2010,09,24,14,48,12.90
2010,09,24,14,49,13.00
2010,09,24,14,50,13.00
2010,09,24,14,51,13.10
2010,09,24,14,52,13.10
2010,09,24,14,53,13.10
2010,09,24,14,54,13.10
2010,09,24,14,55,13.00
2010,09,24,14,56,13.00
2010,09,24,14,57,13.00
2010,09,24,14,58,13.00
2010,09,24,14,59,12.90
2010,09,24,15,00,12.90
2010,09,24,15,01,12.90
2010,09,24,15,02,12.80
2010,09,24,15,03,12.70
2010,09,24,15,04,12.60
2010,09,24,15,05,12.60
2010,09,24,15,06,12.60
2010,09,24,15,07,12.50
2010,09,24,15,08,12.40
2010,09,24,15,09,12.40
2010,09,24,15,10,12.30
2010,09,24,15,11,12.30
2010,09,24,15,12,12.30
2010,09,24,15,13,12.30
2010,09,24,15,14,12.20
2010,09,24,15,15,12.20
2010,09,24,15,16,12.20
2010,09,24,15,17,12.10
2010,09,24,15,18,12.10
2010,09,24,15,19,12.10
2010,09,24,15,20,12.10
2010,09,24,15,21,12.20
2010,09,24,15,22,12.20
2010,09,24,15,23,12.20
2010,09,24,15,24,12.20
2010,09,24,15,25,12.30
2010,09,24,15,26,12.30
2010,09,24,15,27,12.30
2010,09,24,15,28,12.30
2010,09,24,15,29,12.30
2010,09,24,15,30,12.30
2010,09,24,15,31,12.30
2010,09,24,15,32,12.40
2010,09,24,15,33,12.40
2010,09,24,15,34,12.40
2010,09,24,15,35,12.40
2010,09,24,15,36,12.30
2010,09,24,15,37,12.30
2010,09,24,15,38,12.30
2010,09,24,15,39,12.30
2010,09,24,15,40,12.30
2010,09,24,15,41,12.30
2010,09,24,15,42,12.20
2010,09,24,15,43,12.20
2010,09,24,15,44,12.20
2010,09,24,15,45,12.20
2010,09,24,15,46,12.10
2010,09,24,15,47,12.10
2010,09,24,15,48,12.10
2010,09,24,15,49,12.10
2010,09,24,15,50,12.10
2010,09,24,15,51,12.00
2010,09,24,15,52,12.00
2010,09,24,15,53,12.10
2010,09,24,15,54,12.10
2010,09,24,15,55,12.10
2010,09,24,15,56,12.10
2010,09,24,15,57,12.10
2010,09,24,15,58,12.10
2010,09,24,15,59,12.20
2010,09,24,16,00,12.20
2010,09,24,16,01,12.20
2010,09,24,16,02,12.20
2010,09,24,16,03,12.20
2010,09,24,16,04,12.30
2010,09,24,16,05,12.30
2010,09,24,16,06,12.30
2010,09,24,16,07,12.30
2010,09,24,16,08,12.30
2010,09,24,16,09,12.30
2010,09,24,16,10,12.30
2010,09,24,16,11,12.30
2010,09,24,16,12,12.30
2010,09,24,16,13,12.30
2010,09,24,16,14,12.30
2010,09,24,16,15,12.30
2010,09,24,16,16,12.30
2010,09,24,16,17,12.30
2010,09,24,16,18,12.30
2010,09,24,16,19,12.30
2010,09,24,16,20,12.30
2010,09,24,16,21,12.30
2010,09,24,16,22,12.30
2010,09,24,16,23,12.30
2010,09,24,16,24,12.30
2010,09,24,16,25,12.30
2010,09,24,16,26,12.30
2010,09,24,16,27,12.30
2010,09,24,16,28,12.30
2010,09,24,16,29,12.30
2010,09,24,16,30,12.30
2010,09,24,16,31,12.30
2010,09,24,16,32,12.30
2010,09,24,16,33,12.30
2010,09,24,16,34,12.30
2010,09,24,16,35,12.30
2010,09,24,16,36,12.30
2010,09,24,16,37,12.30
2010,09,24,16,38,12.30
2010,09,24,16,39,12.30
2010,09,24,16,40,12.30
2010,09,24,16,41,12.30
2010,09,24,16,42,12.30
2010,09,24,16,43,12.30
2010,09,24,16,44,12.30
2010,09,24,16,45,12.30
2010,09,24,16,46,12.30
2010,09,24,16,47,12.30
2010,09,24,16,48,12.40
2010,09,24,16,49,12.40
2010,09,24,16,50,12.40
2010,09,24,16,51,12.40
2010,09,24,16,52,12.40
2010,09,24,16,53,12.40
2010,09,24,16,54,12.40
2010,09,24,16,55,12.40
2010,09,24,16,56,12.50
2010,09,24,16,57,12.50
2010,09,24,16,58,12.50
2010,09,24,16,59,12.50
2010,09,24,17,00,12.60
2010,09,24,17,01,12.60
2010,09,24,17,02,12.60
2010,09,24,17,03,12.60
2010,09,24,17,04,12.60
2010,09,24,17,05,12.60
2010,09,24,17,06,12.70
2010,09,24,17,07,12.70
2010,09,24,17,08,12.70
2010,09,24,17,09,12.70
2010,09,24,17,10,12.70
2010,09,24,17,11,12.70
2010,09,24,17,12,12.70
2010,09,24,17,13,12.70
2010,09,24,17,14,12.70
2010,09,24,17,15,12.70
2010,09,24,17,16,12.70
2010,09,24,17,17,12.70
2010,09,24,17,18,12.70
2010,09,24,17,19,12.70
2010,09,24,17,20,12.70
2010,09,24,17,21,12.70
2010,09,24,17,22,12.70
2010,09,24,17,23,12.80
2010,09,24,17,24,12.80
2010,09,24,17,25,12.80
2010,09,24,17,26,12.80
2010,09,24,17,27,12.80
2010,09,24,17,28,12.80
2010,09,24,17,29,12.90
2010,09,24,17,30,12.90
2010,09,24,17,31,12.90
2010,09,24,17,32,12.90
2010,09,24,17,33,13.00
2010,09,24,17,34,13.00
2010,09,24,17,35,13.00
2010,09,24,17,36,13.00
2010,09,24,17,37,13.00
2010,09,24,17,38,13.00
2010,09,24,17,39,13.00
2010,09,24,17,40,13.10
2010,09,24,17,41,13.20
2010,09,24,17,42,13.20
2010,09,24,17,43,13.20
2010,09,24,17,44,13.20
2010,09,24,17,45,13.30
2010,09,24,17,46,13.30
2010,09,24,17,47,13.30
2010,09,24,17,48,13.30
2010,09,24,17,49,13.30
2010,09,24,17,50,13.30
2010,09,24,17,51,13.30
2010,09,24,17,52,13.30
2010,09,24,17,53,13.40
2010,09,24,17,54,13.40
2010,09,24,17,55,13.40
2010,09,24,17,56,13.40
2010,09,24,17,57,13.50
2010,09,24,17,58,13.50
2010,09,24,17,59,13.50
2010,09,24,18,00,13.50
2010,09,24,18,01,13.50
2010,09,24,18,02,13.40
2010,09,24,18,03,13.40
2010,09,24,18,04,13.40
2010,09,24,18,05,13.40
2010,09,24,18,06,13.40
2010,09,24,18,07,13.40
2010,09,24,18,08,13.40
2010,09,24,18,09,13.40
2010,09,24,18,10,13.40
2010,09,24,18,11,13.40
2010,09,24,18,12,13.40
2010,09,24,18,13,13.40
2010,09,24,18,14,13.40
2010,09,24,18,15,13.50
2010,09,24,18,16,13.50
2010,09,24,18,17,13.50
2010,09,24,18,18,13.50
2010,09,24,18,19,13.50
2010,09,24,18,20,13.50
2010,09,24,18,21,13.50
2010,09,24,18,22,13.50
2010,09,24,18,23,13.50
2010,09,24,18,24,13.50
2010,09,24,18,25,13.50
2010,09,24,18,26,13.50
2010,09,24,18,27,13.50
2010,09,24,18,28,13.50
2010,09,24,18,29,13.50
2010,09,24,18,30,13.50
2010,09,24,18,31,13.50
2010,09,24,18,32,13.50
2010,09,24,18,33,13.60
2010,09,24,18,34,13.60
2010,09,24,18,35,13.60
2010,09,24,18,36,13.50
2010,09,24,18,37,13.50
2010,09,24,18,38,13.50
2010,09,24,18,39,13.50
2010,09,24,18,40,13.50
2010,09,24,18,41,13.50
2010,09,24,18,42,13.50
2010,09,24,18,43,13.50